Wind_Speed
23 23 24 24 24 25 26 26 26 27 27 28 28 29 29 30 30 31 31 31 32 32 33 33 34 34 33 33 32 32 32 31 31 31 31 31 31 31 31 30 30 31 31
25 25 25 26 26 26 27 27 27 28 29 29 30 30 30 31 31 32 32 32 33 33 34 34 34 34 34 34 34 34 34 34 34 34 34 34 34 34 34 34 34 34 34
27 27 27 27 28 28 28 29 29 29 30 31 31 32 32 32 33 33 33 34 34 35 35 35 35 36 36 36 36 36 36 36 36 36 37 37 37 37 38 38 38 38 38
28 29 29 30 30 30 30 31 30 31 32 32 33 33 33 34 34 35 35 35 35 35 35 35 36 36 36 37 37 38 38 38 39 39 40 40 40 40 41 41 41 41 41
31 31 32 32 32 32 33 33 33 33 33 34 34 34 34 34 35 35 36 36 36 36 36 36 36 36 37 37 38 38 39 40 40 41 42 42 43 43 43 43 43 44 44
34 34 34 35 35 35 35 35 35 35 35 35 35 35 36 36 36 36 36 36 36 36 36 36 37 37 37 38 39 39 40 40 41 42 43 43 44 44 45 45 45 46 46
36 36 37 38 38 38 38 38 37 37 37 37 37 37 37 37 37 37 37 37 36 36 36 37 37 38 38 39 39 40 41 42 42 43 44 44 45 46 46 47 48 48 49
39 40 40 41 41 41 41 40 40 40 40 39 39 39 38 37 37 37 37 37 37 38 37 37 37 38 39 40 41 41 42 43 43 44 45 46 47 48 48 49 50 51 52
43 43 44 44 44 44 43 43 42 42 42 41 41 40 40 39 38 38 38 38 38 38 38 39 39 40 40 41 42 42 43 44 45 47 48 49 49 50 51 52 53 54 54
47 47 47 47 47 47 46 46 45 45 44 43 43 42 41 41 40 39 39 40 39 39 40 41 41 41 42 43 44 45 45 46 47 48 50 51 52 53 54 55 56 57 58
50 50 49 49 49 49 48 48 47 47 47 46 45 44 44 43 42 42 42 41 41 41 42 42 43 44 45 46 46 47 48 49 50 51 52 54 55 56 57 58 59 60 61
53 52 52 52 52 51 51 50 50 49 48 47 47 47 45 45 44 44 44 43 43 43 44 45 46 47 48 49 50 51 52 53 54 55 56 57 58 59 60 61 62 63 64
56 55 54 54 54 54 53 53 52 51 50 50 49 48 47 46 46 45 46 45 45 45 46 48 49 51 51 52 54 55 56 57 58 59 60 62 63 64 64 65 66 67 67
59 58 57 56 56 55 55 54 54 53 52 52 51 51 49 48 47 47 47 47 47 48 48 50 52 53 55 56 58 59 60 61 62 64 65 66 67 68 69 70 70 71 72
61 61 60 59 57 57 56 55 55 54 54 53 52 52 51 49 49 49 49 49 49 50 50 52 54 56 58 60 62 63 64 65 66 68 69 70 71 72 73 73 74 75 75
63 62 61 59 58 57 57 57 56 55 54 53 53 52 51 50 50 50 50 51 52 54 54 55 57 60 62 64 65 66 67 69 70 71 72 73 74 75 76 77 78 79 79
63 61 59 58 57 56 56 56 55 55 53 52 52 51 51 50 52 52 53 54 56 57 58 59 62 64 65 67 69 70 72 73 73 74 75 76 77 79 80 81 82 83 84
61 59 57 55 54 54 53 53 53 53 52 51 50 50 50 51 52 53 54 55 58 59 61 62 64 67 69 71 72 74 74 74 75 77 78 80 81 83 84 85 86 87 87
56 55 54 52 51 50 50 50 50 49 49 48 48 48 49 51 52 54 56 58 60 62 63 65 67 70 71 74 75 76 76 77 79 80 82 84 85 86 87 87 87 86 84
50 50 48 47 46 46 45 45 45 45 45 45 46 47 49 51 53 55 57 59 61 63 66 68 70 72 74 75 77 77 78 79 81 83 85 86 86 86 85 84 81 78 76
42 42 42 42 41 40 40 40 40 42 42 43 44 46 50 52 55 57 59 61 63 66 68 71 72 73 74 76 78 79 80 81 82 83 83 82 81 79 77 74 71 68 66
32 34 34 34 34 34 35 36 37 38 39 41 43 46 50 53 55 58 60 63 66 68 70 71 71 73 75 78 79 80 81 81 79 79 77 73 72 69 67 64 62 60 58
25 26 27 27 29 31 32 33 35 37 38 41 44 47 51 54 56 58 61 64 66 68 70 71 73 75 77 79 80 80 79 78 74 72 69 63 61 59 56 55 55 55 54
19 20 22 24 26 27 28 30 33 35 39 42 44 48 50 53 57 59 61 63 65 68 70 73 75 77 78 78 77 75 72 68 63 60 59 55 52 51 51 52 53 54 53
16 18 19 21 23 25 27 30 33 36 39 43 46 48 51 54 56 59 61 62 65 69 72 74 75 75 73 71 68 64 61 57 53 51 53 51 49 48 47 48 50 51 50
13 15 17 21 23 25 27 30 33 37 40 43 46 49 51 54 56 58 61 63 67 69 71 72 70 67 64 62 60 58 55 52 49 47 47 47 46 46 42 41 43 45 45
Wind_Direction
278 281 283 285 285 285 285 285 286 286 286 287 287 287 288 288 288 287 287 287 287 286 285 285 285 285 284 283 284 284 283 282 281 279 279 278 278 278 277 277 275 274 273
276 278 280 282 283 284 285 285 285 285 286 286 287 287 288 289 289 290 289 289 289 288 288 287 286 285 284 283 283 282 282 281 280 279 278 277 277 277 277 276 275 274 273
274 276 278 279 281 283 283 284 284 285 286 286 286 287 288 288 289 290 290 291 290 290 289 288 287 286 285 284 283 282 281 280 280 279 278 278 277 277 277 276 275 274 273
273 275 277 278 280 281 282 283 283 284 285 286 286 286 287 288 289 289 290 290 291 291 291 290 289 287 285 284 284 283 281 281 280 280 279 278 278 277 277 276 275 274 273
271 274 276 277 279 280 281 282 283 284 284 285 286 287 287 288 289 290 290 291 290 290 291 291 290 289 288 286 285 284 283 282 281 280 279 279 278 278 277 276 275 274 273
271 273 275 276 277 279 280 281 282 283 284 284 285 286 286 287 288 289 290 290 290 291 291 291 291 291 290 289 288 286 285 284 283 282 281 280 279 278 277 276 275 274 274
271 273 274 275 276 277 278 279 280 282 283 284 284 285 286 286 287 289 289 290 290 291 292 293 292 292 291 291 290 289 287 286 285 283 282 281 280 279 278 277 276 275 275
270 271 271 272 273 274 276 277 279 280 281 282 283 284 285 286 287 288 289 290 290 291 292 293 293 293 292 291 291 290 289 288 287 286 285 283 282 281 279 278 277 276 276
267 268 269 270 272 274 275 276 277 279 279 280 280 282 283 284 285 287 288 289 290 291 292 294 293 293 293 292 291 291 290 289 289 288 287 286 284 283 281 280 279 278 277
266 267 268 269 271 273 274 275 276 277 278 278 279 280 281 283 284 285 286 288 289 291 293 293 292 292 292 291 291 291 291 290 290 289 288 287 286 285 284 282 281 280 278
265 266 267 268 269 271 272 273 273 274 275 277 277 279 280 281 283 284 285 287 288 290 291 291 292 292 292 292 291 292 292 291 290 290 289 289 288 287 286 284 283 281 280
264 264 264 265 267 268 269 270 271 272 274 275 276 277 279 280 282 282 285 286 287 289 290 291 292 293 293 293 292 293 293 293 292 292 291 290 289 288 287 286 284 283 282
263 263 263 263 264 265 266 267 268 270 271 273 275 276 278 280 280 282 284 286 288 289 290 291 292 293 294 295 295 295 294 294 294 293 292 292 291 290 288 287 285 284 282
262 261 261 261 261 263 264 265 266 268 269 271 273 275 277 278 280 283 284 286 287 288 289 290 291 293 294 295 295 295 295 294 294 294 293 292 292 290 289 287 286 285 283
261 260 260 259 260 261 262 263 265 267 268 270 271 274 276 278 280 284 285 285 286 287 288 289 291 292 293 294 295 295 295 295 294 294 293 292 291 290 289 288 286 285 284
259 259 259 259 259 259 260 262 263 264 267 269 271 273 276 277 280 282 283 285 285 286 287 289 291 292 293 294 294 295 295 295 294 293 292 291 290 289 288 287 286 285 284
257 257 258 258 258 259 260 261 263 264 266 269 271 272 275 276 280 281 283 284 285 287 288 290 291 293 294 295 295 295 296 295 294 294 293 292 291 290 289 288 287 286 285
254 255 256 256 257 258 260 261 262 264 266 268 271 273 274 276 279 281 283 284 287 289 290 291 293 294 295 296 296 296 296 296 295 294 293 293 292 291 290 289 288 287 286
251 252 253 254 256 258 260 261 263 265 266 268 270 273 275 277 279 282 283 286 289 291 292 294 295 296 297 297 297 297 297 297 296 295 295 294 293 292 291 290 289 288 286
249 250 251 253 255 258 260 262 264 265 266 268 271 273 275 279 281 284 286 289 291 293 295 296 297 297 298 298 298 298 298 298 298 297 296 295 294 293 292 291 289 288 286
246 247 249 251 254 258 260 261 262 264 265 268 271 274 277 280 284 287 289 292 293 295 296 298 299 299 299 299 299 299 299 299 298 297 297 297 296 295 294 292 290 288 286
241 244 247 250 253 256 258 260 263 265 267 270 274 277 280 283 287 290 292 294 295 297 298 299 300 300 300 300 301 301 301 300 299 298 298 298 297 296 295 294 292 289 287
236 239 243 247 251 254 257 261 263 266 270 273 276 279 282 286 290 294 296 298 299 300 300 301 301 302 302 302 302 303 302 302 301 300 299 298 297 296 296 295 293 291 288
233 236 241 245 250 254 259 263 267 271 275 278 281 284 287 291 294 297 298 300 301 302 302 303 304 304 304 304 304 305 304 304 304 302 300 300 298 297 297 295 293 292 290
231 234 240 247 255 259 265 271 274 278 281 284 288 290 294 296 298 299 301 302 303 304 305 305 306 306 306 306 307 308 308 307 306 304 302 303 301 299 298 296 294 293 291
232 238 249 258 260 264 270 277 282 286 289 292 294 297 298 300 301 303 304 304 305 306 307 308 308 308 309 310 311 311 310 309 308 306 304 305 304 302 300 296 294 292 291
Height
5822 5822 5822 5822 5822 5821 5821 5820 5820 5820 5819 5818 5817 5817 5816 5815 5815 5814 5813 5812 5811 5810 5809 5808 5807 5806 5805 5805 5804 5803 5802 5801 5801 5800 5800 5799 5799 5798 5798 5798 5798 5798 5798
5817 5817 5817 5817 5816 5816 5816 5815 5815 5814 5813 5813 5812 5811 5810 5809 5808 5807 5806 5805 5804 5803 5802 5801 5800 5799 5798 5797 5796 5796 5795 5794 5793 5793 5792 5792 5791 5791 5790 5790 5790 5790 5790
5812 5812 5812 5811 5811 5811 5810 5810 5809 5808 5808 5807 5806 5805 5804 5803 5802 5801 5800 5799 5797 5796 5795 5794 5793 5791 5790 5789 5788 5788 5787 5786 5785 5784 5784 5783 5783 5782 5782 5781 5781 5781 5781
5806 5806 5806 5805 5805 5805 5804 5804 5803 5802 5801 5801 5800 5799 5797 5796 5795 5794 5793 5791 5790 5789 5787 5786 5785 5783 5782 5781 5780 5779 5778 5777 5776 5775 5775 5774 5773 5773 5772 5772 5771 5771 5771
5800 5800 5799 5799 5798 5798 5797 5797 5796 5796 5795 5794 5793 5792 5791 5789 5788 5787 5785 5784 5782 5781 5779 5778 5776 5775 5774 5772 5771 5770 5769 5768 5767 5766 5765 5764 5763 5762 5762 5761 5761 5760 5760
5792 5792 5792 5792 5791 5791 5790 5790 5789 5789 5788 5787 5786 5785 5784 5783 5781 5779 5778 5776 5774 5773 5771 5770 5768 5766 5765 5763 5762 5760 5759 5758 5757 5755 5754 5753 5752 5751 5750 5750 5749 5748 5748
5785 5785 5785 5784 5784 5783 5783 5782 5782 5781 5780 5779 5778 5777 5776 5775 5773 5772 5770 5768 5766 5765 5763 5761 5759 5757 5755 5754 5752 5750 5749 5747 5746 5744 5743 5742 5741 5739 5738 5737 5736 5736 5735
5777 5776 5776 5776 5775 5775 5775 5774 5774 5773 5772 5771 5771 5769 5768 5768 5765 5763 5762 5760 5758 5756 5754 5752 5750 5748 5746 5744 5742 5740 5738 5736 5734 5733 5731 5730 5728 5727 5726 5724 5723 5722 5722
5767 5767 5767 5767 5766 5766 5766 5765 5765 5765 5764 5763 5762 5761 5760 5759 5757 5755 5753 5751 5749 5747 5745 5743 5741 5739 5736 5734 5732 5730 5728 5725 5723 5721 5719 5717 5715 5714 5712 5711 5709 5708 5707
5757 5757 5757 5757 5757 5757 5757 5756 5756 5755 5754 5753 5752 5752 5751 5749 5748 5747 5745 5742 5740 5738 5735 5733 5731 5728 5726 5723 5721 5719 5717 5714 5711 5709 5706 5704 5702 5700 5698 5696 5694 5693 5691
5746 5746 5747 5747 5747 5747 5747 5746 5746 5746 5745 5744 5743 5742 5741 5739 5738 5737 5735 5733 5730 5728 5725 5722 5720 5717 5715 5712 5709 5707 5704 5701 5699 5696 5693 5690 5687 5685 5682 5680 5678 5676 5674
5735 5735 5736 5736 5736 5736 5736 5736 5736 5735 5735 5734 5733 5732 5731 5729 5728 5726 5724 5722 5720 5717 5714 5711 5708 5705 5702 5699 5697 5694 5691 5687 5684 5681 5678 5674 5671 5669 5666 5663 5661 5658 5656
5722 5723 5723 5724 5724 5725 5725 5725 5725 5725 5724 5724 5723 5722 5720 5719 5717 5715 5713 5711 5709 5706 5703 5699 5695 5692 5689 5686 5682 5679 5676 5672 5668 5665 5661 5657 5654 5651 5648 5645 5642 5639 5637
5708 5709 5710 5711 5712 5712 5713 5713 5713 5713 5713 5713 5712 5711 5709 5708 5706 5704 5702 5700 5697 5695 5691 5687 5683 5679 5675 5672 5668 5664 5660 5656 5652 5647 5643 5639 5635 5631 5628 5624 5621 5618 5615
5692 5694 5696 5697 5698 5700 5700 5701 5701 5702 5702 5702 5701 5700 5699 5697 5695 5693 5691 5688 5686 5683 5680 5676 5670 5666 5661 5657 5652 5648 5644 5639 5634 5629 5624 5619 5615 5611 5606 5603 5599 5595 5592
5676 5678 5681 5683 5685 5687 5688 5689 5689 5690 5690 5690 5689 5688 5687 5685 5683 5681 5678 5675 5672 5670 5666 5663 5657 5652 5646 5641 5636 5631 5626 5621 5616 5610 5604 5599 5594 5589 5584 5580 5575 5571 5567
5659 5663 5666 5669 5671 5673 5675 5677 5678 5678 5679 5678 5678 5677 5676 5674 5672 5669 5666 5663 5659 5655 5652 5648 5642 5636 5630 5624 5618 5612 5607 5601 5595 5588 5581 5576 5570 5565 5560 5554 5549 5545 5540
5643 5648 5652 5655 5658 5661 5663 5665 5666 5667 5667 5668 5667 5665 5664 5661 5659 5656 5652 5649 5644 5640 5636 5632 5626 5619 5612 5605 5600 5594 5587 5580 5573 5565 5558 5551 5545 5539 5533 5527 5521 5515 5510
5629 5634 5639 5643 5647 5650 5652 5654 5655 5656 5657 5657 5656 5654 5652 5650 5646 5643 5639 5635 5630 5625 5620 5615 5609 5602 5594 5586 5580 5574 5566 5558 5549 5540 5533 5525 5518 5511 5503 5497 5491 5485 5479
5617 5623 5628 5633 5636 5640 5642 5644 5645 5646 5646 5645 5644 5643 5640 5638 5634 5630 5625 5620 5615 5609 5603 5597 5591 5583 5575 5566 5559 5553 5546 5536 5526 5515 5506 5498 5490 5482 5473 5467 5461 5455 5449
5607 5614 5619 5623 5627 5631 5633 5634 5635 5636 5635 5635 5633 5631 5629 5626 5622 5617 5612 5606 5600 5593 5586 5579 5572 5565 5556 5547 5539 5530 5523 5514 5503 5489 5481 5471 5462 5455 5446 5439 5433 5428 5424
5600 5606 5611 5616 5619 5622 5624 5625 5626 5626 5626 5625 5623 5621 5618 5614 5609 5604 5598 5591 5584 5576 5569 5562 5555 5546 5537 5527 5518 5508 5499 5490 5481 5467 5458 5450 5437 5431 5423 5416 5409 5404 5401
5595 5601 5605 5610 5613 5615 5617 5618 5618 5618 5616 5615 5613 5610 5606 5601 5596 5590 5583 5576 5567 5558 5551 5544 5536 5525 5516 5506 5497 5487 5475 5465 5455 5442 5435 5432 5420 5413 5405 5397 5390 5385 5382
5592 5597 5601 5604 5607 5609 5610 5610 5610 5609 5608 5605 5602 5598 5594 5589 5583 5576 5569 5561 5551 5542 5534 5525 5516 5505 5494 5484 5474 5465 5454 5445 5436 5422 5413 5412 5405 5398 5391 5382 5373 5367 5364
5591 5595 5598 5600 5602 5603 5604 5604 5603 5601 5598 5595 5591 5587 5581 5576 5569 5562 5555 5547 5537 5526 5515 5504 5494 5484 5473 5463 5454 5445 5436 5428 5421 5411 5399 5395 5390 5384 5379 5370 5359 5351 5346
5590 5593 5595 5596 5597 5597 5597 5596 5594 5592 5589 5584 5580 5575 5569 5562 5555 5547 5539 5531 5521 5510 5498 5486 5475 5465 5455 5446 5437 5429 5421 5413 5405 5399 5389 5382 5375 5367 5365 5360 5349 5339 5332